�N����,����,�~����,�C��,���x,�C��,����,���ϕ���,�ő�u�ԕ���,�ő厞����,���˗�,�I�_���x,�n�����x,�ő啗���N��,DTYPE
"23/12/24","00:10",0.0,0.1,86.2,1024.1,307.3,1.6,2.2,314.4,0.00,-1.9,6.0,"00:02:48",1
"23/12/24","00:20",0.0,0.1,86.7,1024.4,312.5,1.1,1.9,337.1,0.00,-1.8,6.0,"00:10:24",1
"23/12/24","00:30",0.0,0.0,87.1,1023.9,280.2,1.5,1.8,319.0,0.00,-1.8,6.0,"00:26:48",1
"23/12/24","00:40",0.0,-0.2,87.4,1024.4,282.4,0.7,1.4,311.9,0.00,-2.0,6.0,"00:30:48",1
"23/12/24","00:50",0.0,-0.2,87.8,1024.4,283.6,1.2,1.8,306.4,0.00,-1.9,6.0,"00:49:04",1
"23/12/24","01:00",0.0,0.1,88.0,1024.4,281.7,1.6,1.9,309.8,0.00,-1.6,5.8,"00:50:32",1
"23/12/24","01:10",0.0,0.2,88.0,1024.1,289.1,1.5,2.0,331.7,0.00,-1.5,5.9,"01:06:40",1
"23/12/24","01:20",0.0,0.1,88.2,1023.9,328.3,1.0,1.8,327.8,0.00,-1.6,5.8,"01:19:28",1
"23/12/24","01:30",0.0,-0.3,88.2,1024.1,323.6,1.6,2.5,315.3,0.00,-2.0,5.8,"01:26:32",1
"23/12/24","01:40",0.0,-0.7,88.4,1023.7,311.4,1.2,2.0,317.5,0.00,-2.3,5.8,"01:36:08",1
"23/12/24","01:50",0.0,-0.6,88.8,1023.7,259.6,0.2,1.4,313.1,0.00,-2.2,5.7,"01:40:16",1
"23/12/24","02:00",0.0,-0.7,88.9,1023.7,283.8,0.7,1.3,321.3,0.00,-2.3,5.8,"01:52:56",1
"23/12/24","02:10",0.0,-0.7,89.1,1023.9,308.5,1.3,1.8,320.1,0.00,-2.2,5.8,"02:05:12",1
"23/12/24","02:20",0.0,-0.9,89.4,1023.7,320.9,1.6,2.0,322.9,0.00,-2.4,5.7,"02:13:12",1
"23/12/24","02:30",0.0,-0.9,89.7,1023.9,314.3,1.0,1.7,347.4,0.00,-2.3,5.8,"02:23:52",1
"23/12/24","02:40",0.0,-0.9,89.9,1023.7,292.3,1.2,1.6,336.3,0.00,-2.3,5.7,"02:30:02",1
"23/12/24","02:50",0.0,-0.8,90.2,1023.4,311.7,1.5,2.0,330.2,0.00,-2.2,5.4,"02:40:32",1
"23/12/24","03:00",0.0,-0.8,90.5,1023.2,316.2,1.5,1.8,309.1,0.00,-2.1,5.5,"02:59:20",1
"23/12/24","03:10",0.0,-0.7,90.8,1023.4,309.1,1.5,1.8,321.3,0.00,-2.0,5.6,"03:00:16",1
"23/12/24","03:20",0.0,-0.7,91.0,1023.4,321.9,1.3,1.8,317.9,0.00,-1.9,5.7,"03:10:56",1
"23/12/24","03:30",0.0,-0.8,91.2,1023.4,317.8,1.7,2.0,322.9,0.00,-2.0,5.6,"03:28:16",1
"23/12/24","03:40",0.0,-1.1,91.5,1023.4,274.8,0.8,1.9,327.4,0.00,-2.3,5.7,"03:33:20",1
"23/12/24","03:50",0.0,-1.1,91.7,1023.4,280.4,0.6,1.2,278.9,0.00,-2.2,5.5,"03:43:20",1
"23/12/24","04:00",0.0,-1.1,91.8,1023.4,325.6,1.2,2.1,329.9,0.00,-2.2,5.4,"03:59:04",1
"23/12/24","04:10",0.0,-1.6,92.1,1023.7,326.9,2.0,2.4,328.7,0.00,-2.7,5.4,"04:07:36",1
"23/12/24","04:20",0.0,-1.8,92.4,1023.7,299.6,1.2,1.7,315.9,0.00,-2.8,5.4,"04:11:04",1
"23/12/24","04:30",0.0,-1.7,92.6,1023.4,287.0,0.7,1.9,313.1,0.00,-2.7,5.4,"04:20:02",1
"23/12/24","04:40",0.0,-1.5,92.8,1023.7,327.9,1.6,2.4,324.4,0.00,-2.5,5.4,"04:33:44",1
"23/12/24","04:50",0.0,-1.7,92.9,1023.9,315.7,1.8,2.6,324.9,0.00,-2.7,5.2,"04:45:04",1
"23/12/24","05:00",0.0,-1.8,93.2,1023.9,291.7,1.5,2.1,307.3,0.00,-2.7,5.4,"04:56:00",1
"23/12/24","05:10",0.0,-1.6,93.5,1023.7,312.8,1.7,2.6,322.1,0.00,-2.5,5.4,"05:00:56",1
"23/12/24","05:20",0.0,-1.9,93.6,1023.4,304.7,1.8,2.6,318.8,0.00,-2.8,5.3,"05:19:44",1
"23/12/24","05:30",0.0,-1.9,93.8,1023.4,316.1,1.2,2.8,322.2,0.00,-2.7,5.1,"05:20:24",1
"23/12/24","05:40",0.0,-1.8,94.1,1023.7,309.2,1.8,2.7,316.6,0.00,-2.6,5.1,"05:35:28",1
"23/12/24","05:50",0.0,-1.8,94.2,1023.7,298.8,1.2,2.7,328.2,0.00,-2.6,5.2,"05:40:32",1
"23/12/24","06:00",0.0,-1.7,94.4,1023.9,285.5,1.1,2.0,309.7,0.00,-2.4,5.1,"05:51:04",1
"23/12/24","06:10",0.0,-1.5,94.5,1023.7,296.3,1.8,2.5,309.0,0.00,-2.2,5.1,"06:04:16",1
"23/12/24","06:20",0.0,-1.5,94.5,1023.9,301.7,1.2,2.5,317.8,0.00,-2.2,5.1,"06:18:00",1
"23/12/24","06:30",0.0,-1.8,94.7,1023.4,312.1,2.0,2.6,322.0,0.00,-2.5,4.9,"06:26:56",1
"23/12/24","06:40",0.0,-2.2,94.9,1024.1,299.3,1.8,2.2,311.2,0.00,-2.9,5.2,"06:37:04",1
"23/12/24","06:50",0.0,-2.2,95.2,1023.7,315.1,1.6,2.8,324.3,0.00,-2.8,5.1,"06:46:32",1
"23/12/24","07:00",0.0,-2.4,95.4,1023.7,317.6,2.2,2.7,322.8,0.00,-3.0,5.0,"06:57:20",1
"23/12/24","07:10",0.0,-2.6,95.4,1023.4,289.1,1.5,2.4,306.8,0.00,-3.2,5.2,"07:00:08",1
"23/12/24","07:20",0.0,-2.7,95.6,1023.4,299.1,1.8,2.5,317.4,0.00,-3.3,4.8,"07:18:12",1
"23/12/24","07:30",0.0,-2.3,95.8,1023.7,317.1,2.0,2.1,311.4,0.00,-2.8,5.1,"07:21:12",1
"23/12/24","07:40",0.0,-2.1,95.9,1023.9,317.1,1.6,2.2,325.0,0.00,-2.6,5.0,"07:33:52",1
"23/12/24","07:50",0.0,-1.6,96.0,1023.9,315.2,1.3,1.8,323.4,0.02,-2.1,5.0,"07:42:00",1
"23/12/24","08:00",0.0,-1.1,96.0,1023.9,310.8,1.8,2.2,318.3,0.03,-1.6,5.1,"07:55:36",1
"23/12/24","08:10",0.0,-0.3,96.0,1024.1,270.2,1.1,1.8,305.6,0.05,-0.8,4.8,"08:00:24",1
"23/12/24","08:20",0.0,0.1,95.7,1024.1,279.3,1.1,1.6,262.9,0.01,-0.5,5.0,"08:12:38",1
"23/12/24","08:30",0.0,0.0,95.8,1024.4,302.4,1.3,2.1,313.7,0.04,-0.5,4.9,"08:26:32",1
"23/12/24","08:40",0.0,0.5,96.0,1024.4,302.2,1.8,2.4,313.0,0.13,0.0,5.1,"08:35:54",1
"23/12/24","08:50",0.0,1.3,95.8,1024.4,288.5,0.8,1.8,313.4,0.12,0.7,4.9,"08:42:16",1
"23/12/24","09:00",0.0,1.6,95.6,1024.9,307.9,2.2,2.8,312.5,0.16,1.0,4.7,"08:57:52",1
"23/12/24","09:10",0.0,2.1,94.9,1025.1,266.8,1.0,2.8,316.7,0.17,1.4,4.8,"09:00:08",1
"23/12/24","09:20",0.0,2.7,94.2,1025.3,219.4,0.8,2.1,206.2,0.25,1.9,4.9,"09:18:24",1
"23/12/24","09:30",0.0,3.3,93.2,1025.6,233.4,0.8,1.8,252.5,0.26,2.3,5.0,"09:28:16",1
"23/12/24","09:40",0.0,3.9,91.4,1026.0,242.1,0.8,2.0,251.1,0.29,2.7,5.2,"09:39:20",1
"23/12/24","09:50",0.0,4.5,88.7,1026.0,242.4,0.6,1.3,274.6,0.31,2.8,4.9,"09:40:08",1
"23/12/24","10:00",0.0,5.1,84.6,1026.3,237.2,0.8,1.8,201.7,0.33,2.8,5.1,"09:53:22",1
"23/12/24","10:10",0.0,5.4,79.5,1026.0,239.2,1.1,2.1,249.2,0.34,2.2,5.2,"10:03:02",1
"23/12/24","10:20",0.0,5.4,75.2,1026.0,242.2,1.0,2.5,251.0,0.19,1.4,5.1,"10:17:44",1
"23/12/24","10:30",0.0,5.7,74.1,1025.8,163.1,0.7,2.1,232.9,0.33,1.5,5.4,"10:20:24",1
"23/12/24","10:40",0.0,5.8,72.5,1025.8,172.7,0.8,2.0,138.7,0.25,1.3,5.2,"10:34:00",1
"23/12/24","10:50",0.0,6.7,70.5,1025.6,213.5,1.5,3.4,202.3,0.43,1.8,5.4,"10:44:32",1
"23/12/24","11:00",0.0,6.9,67.8,1025.3,183.8,1.5,2.7,133.6,0.43,1.4,5.5,"10:53:30",1
"23/12/24","11:10",0.0,7.0,67.1,1025.1,195.8,1.6,3.5,195.2,0.43,1.4,5.4,"11:05:38",1
"23/12/24","11:20",0.0,7.2,66.5,1025.1,178.4,1.5,2.6,218.8,0.43,1.4,5.6,"11:19:10",1
"23/12/24","11:30",0.0,7.5,65.9,1025.1,141.3,1.3,2.8,108.5,0.44,1.6,5.7,"11:27:00",1
"23/12/24","11:40",0.0,8.0,64.3,1024.6,184.4,1.0,1.7,142.8,0.44,1.7,5.7,"11:30:08",1
"23/12/24","11:50",0.0,8.3,62.6,1024.9,185.4,0.8,1.3,356.7,0.45,1.6,5.8,"11:44:50",1
"23/12/24","12:00",0.0,8.9,61.2,1024.4,194.4,1.3,2.4,206.4,0.46,1.9,5.9,"11:56:00",1
"23/12/24","12:10",0.0,9.1,55.7,1024.1,246.0,2.7,4.4,219.0,0.46,0.8,6.0,"12:00:56",1
"23/12/24","12:20",0.0,9.6,54.5,1024.1,256.2,2.7,5.5,262.7,0.46,0.9,6.0,"12:18:56",1
"23/12/24","12:30",0.0,9.7,52.3,1023.9,261.9,2.5,4.7,246.3,0.45,0.4,6.2,"12:25:04",1
"23/12/24","12:40",0.0,9.9,52.1,1023.4,285.7,2.5,4.1,265.7,0.45,0.6,6.3,"12:36:50",1
"23/12/24","12:50",0.0,9.9,51.8,1023.4,235.4,3.6,6.2,235.5,0.44,0.5,6.5,"12:43:12",1
"23/12/24","13:00",0.0,9.9,50.4,1023.0,254.6,3.6,6.4,217.2,0.44,0.1,6.5,"12:58:08",1
"23/12/24","13:10",0.0,10.3,50.4,1022.5,258.6,2.8,5.9,239.9,0.42,0.5,6.6,"13:09:56",1
"23/12/24","13:20",0.0,10.1,49.9,1022.7,247.3,3.2,7.2,238.8,0.41,0.2,6.6,"13:16:50",1
"23/12/24","13:30",0.0,10.3,50.8,1022.0,239.3,2.7,4.9,205.5,0.40,0.6,6.9,"13:27:16",1
"23/12/24","13:40",0.0,10.5,49.2,1022.3,271.4,2.7,4.7,244.5,0.38,0.3,6.8,"13:32:20",1
"23/12/24","13:50",0.0,10.8,48.1,1021.8,283.8,2.2,4.4,340.1,0.37,0.3,6.8,"13:43:40",1
"23/12/24","14:00",0.0,10.5,47.7,1021.8,255.7,2.7,5.5,232.6,0.35,-0.1,6.8,"13:58:12",1
"23/12/24","14:10",0.0,10.8,49.6,1022.0,248.7,2.2,5.5,220.4,0.33,0.7,7.0,"14:04:00",1
"23/12/24","14:20",0.0,10.4,48.9,1021.8,237.4,3.6,6.4,242.3,0.31,0.2,7.2,"14:16:00",1
"23/12/24","14:30",0.0,10.6,48.2,1021.5,239.5,3.0,6.3,217.2,0.29,0.2,7.3,"14:27:22",1
"23/12/24","14:40",0.0,10.6,48.1,1021.5,235.4,2.6,4.7,226.4,0.27,0.1,7.5,"14:35:12",1
"23/12/24","14:50",0.0,10.7,47.6,1021.5,230.1,2.3,4.1,227.7,0.24,0.1,7.4,"14:42:46",1
"23/12/24","15:00",0.0,10.8,47.6,1021.1,247.4,2.3,4.1,235.5,0.22,0.2,7.4,"14:57:04",1
"23/12/24","15:10",0.0,10.6,48.6,1021.5,237.7,2.6,5.7,234.1,0.20,0.3,7.6,"15:00:54",1
"23/12/24","15:20",0.0,10.7,47.0,1021.3,247.0,1.7,3.4,230.0,0.17,-0.1,7.4,"15:14:58",1
"23/12/24","15:30",0.0,10.8,47.4,1021.3,245.9,1.8,3.9,240.8,0.14,0.1,7.5,"15:23:52",1
"23/12/24","15:40",0.0,10.5,49.7,1021.3,234.9,2.0,4.0,234.9,0.12,0.5,7.7,"15:37:40",1
"23/12/24","15:50",0.0,9.7,55.7,1020.8,216.0,2.3,4.7,207.5,0.09,1.3,7.6,"15:46:34",1
"23/12/24","16:00",0.0,9.3,58.0,1021.1,213.6,2.7,4.7,230.9,0.07,1.5,7.4,"15:53:38",1
"23/12/24","16:10",0.0,8.9,59.1,1020.8,204.2,2.5,4.9,199.4,0.04,1.4,7.6,"16:03:46",1
"23/12/24","16:20",0.0,8.4,60.9,1021.1,218.0,2.5,4.8,229.0,0.00,1.3,7.6,"16:15:04",1
"23/12/24","16:30",0.0,8.2,62.0,1020.6,230.2,1.8,3.3,216.8,0.00,1.4,7.6,"16:20:40",1
"23/12/24","16:40",0.0,8.0,62.5,1021.1,258.5,1.3,2.6,252.8,0.00,1.3,7.7,"16:38:32",1
"23/12/24","16:50",0.0,7.8,62.9,1020.6,314.0,1.3,2.4,338.6,0.00,1.2,7.6,"16:49:04",1
"23/12/24","17:00",0.0,7.6,64.0,1020.6,336.5,1.3,2.8,337.7,0.00,1.3,7.6,"16:58:56",1
"23/12/24","17:10",0.0,6.9,66.2,1020.6,330.2,2.2,3.3,331.9,0.00,1.1,7.5,"17:09:50",1
"23/12/24","17:20",0.0,6.0,68.9,1020.8,332.7,2.0,2.7,329.7,0.00,0.8,7.4,"17:10:56",1
"23/12/24","17:30",0.0,5.6,70.9,1020.4,332.9,1.8,2.8,339.8,0.00,0.8,7.6,"17:27:40",1
"23/12/24","17:40",0.0,5.1,72.2,1020.6,326.0,1.8,2.6,333.3,0.00,0.6,7.6,"17:30:30",1
"23/12/24","17:50",0.0,5.0,73.4,1020.4,312.5,2.2,2.8,312.3,0.00,0.7,7.6,"17:45:48",1
"23/12/24","18:00",0.0,4.7,74.1,1020.1,303.8,1.8,2.0,310.1,0.00,0.5,7.5,"17:55:30",1
"23/12/24","18:10",0.0,4.8,74.9,1020.4,314.0,2.7,4.1,315.2,0.00,0.8,7.3,"18:09:14",1
"23/12/24","18:20",0.0,4.8,75.2,1020.4,330.5,3.5,4.2,326.1,0.00,0.8,7.4,"18:17:36",1
"23/12/24","18:30",0.0,4.7,75.6,1020.8,315.1,3.1,3.9,318.9,0.00,0.8,7.2,"18:21:40",1
"23/12/24","18:40",0.0,4.7,75.9,1020.6,328.0,3.4,4.4,321.4,0.00,0.9,7.2,"18:32:02",1
"23/12/24","18:50",0.0,4.5,76.0,1020.4,311.0,2.5,3.7,326.1,0.00,0.7,7.3,"18:43:34",1
"23/12/24","19:00",0.0,4.1,76.2,1020.1,305.5,1.3,1.9,316.3,0.00,0.3,7.3,"18:55:42",1
"23/12/24","19:10",0.0,3.9,76.9,1019.9,320.5,1.7,2.5,337.4,0.00,0.3,7.2,"19:08:02",1
"23/12/24","19:20",0.0,3.5,78.0,1020.1,328.6,2.0,2.6,333.4,0.00,0.1,7.1,"19:13:22",1
"23/12/24","19:30",0.0,3.6,78.8,1020.1,308.7,2.6,3.7,321.4,0.00,0.3,7.1,"19:24:46",1
"23/12/24","19:40",0.0,3.4,79.5,1019.7,299.4,2.1,3.4,314.8,0.00,0.2,7.3,"19:35:04",1
"23/12/24","19:50",0.0,3.3,80.1,1019.4,313.5,2.7,3.6,325.4,0.00,0.2,7.2,"19:40:02",1
"23/12/24","20:00",0.0,3.3,80.6,1019.9,308.9,2.3,3.3,329.1,0.00,0.3,7.1,"19:50:18",1
"23/12/24","20:10",0.0,3.1,80.9,1019.4,327.2,2.5,3.3,329.2,0.00,0.2,7.0,"20:06:14",1
"23/12/24","20:20",0.0,3.1,81.3,1019.7,326.9,2.7,3.6,334.2,0.00,0.3,7.2,"20:12:18",1
"23/12/24","20:30",0.0,2.8,81.4,1019.7,68.1,1.3,3.2,316.5,0.00,0.0,7.0,"20:21:40",1
"23/12/24","20:40",0.0,2.5,82.1,1019.9,293.3,1.3,1.9,315.0,0.00,-0.2,6.9,"20:33:48",1
"23/12/24","20:50",0.0,2.3,82.6,1019.7,320.1,1.6,2.0,326.1,0.00,-0.3,6.8,"20:49:44",1
"23/12/24","21:00",0.0,1.7,83.2,1019.2,307.3,1.3,1.9,315.4,0.00,-0.8,6.7,"20:59:46",1
"23/12/24","21:10",0.0,1.7,83.9,1019.4,294.5,1.5,1.9,313.8,0.00,-0.7,6.8,"21:00:32",1
"23/12/24","21:20",0.0,1.3,84.5,1019.0,322.4,1.6,2.0,332.7,0.00,-1.0,6.7,"21:18:00",1
"23/12/24","21:30",0.0,0.9,85.1,1019.2,307.8,1.2,1.8,347.8,0.00,-1.3,6.8,"21:21:04",1
"23/12/24","21:40",0.0,0.5,86.0,1019.4,304.9,1.2,1.8,317.4,0.00,-1.5,6.4,"21:38:16",1
"23/12/24","21:50",0.0,0.4,86.8,1019.2,328.8,1.8,2.2,335.1,0.00,-1.5,6.5,"21:46:24",1
"23/12/24","22:00",0.0,0.8,87.5,1019.4,293.3,1.5,2.4,323.9,0.00,-1.0,6.7,"21:50:02",1
"23/12/24","22:10",0.0,1.2,88.1,1019.0,304.8,1.5,2.1,314.5,0.00,-0.5,6.5,"22:03:28",1
"23/12/24","22:20",0.0,0.2,88.5,1019.0,339.1,1.6,2.4,331.7,0.00,-1.4,6.5,"22:13:20",1
"23/12/24","22:30",0.0,-0.2,89.2,1019.0,325.0,1.6,2.5,325.1,0.00,-1.7,6.2,"22:22:00",1
"23/12/24","22:40",0.0,-0.2,89.8,1019.0,321.5,1.7,2.2,322.9,0.00,-1.6,6.4,"22:33:36",1
"23/12/24","22:50",0.0,-0.4,90.1,1018.7,301.8,1.2,1.9,319.6,0.00,-1.8,6.2,"22:40:24",1
"23/12/24","23:00",0.0,-0.1,90.8,1018.7,292.2,1.6,2.4,316.1,0.00,-1.4,6.4,"22:50:02",1
"23/12/24","23:10",0.0,0.0,91.0,1019.0,307.6,1.5,2.5,313.6,0.00,-1.3,6.3,"23:00:40",1
"23/12/24","23:20",0.0,-0.2,91.5,1018.5,311.8,1.7,2.1,321.2,0.00,-1.4,6.3,"23:19:44",1
"23/12/24","23:30",0.0,-0.1,91.8,1018.2,310.3,1.5,2.9,333.1,0.00,-1.2,6.2,"23:21:36",1
"23/12/24","23:40",0.0,0.1,92.2,1018.5,288.4,1.3,2.0,315.2,0.00,-1.0,6.2,"23:39:36",1
"23/12/24","23:50",0.0,0.5,92.4,1018.5,320.7,1.8,2.5,315.5,0.00,-0.5,6.1,"23:45:44",1
"23/12/24","24:00",0.0,-0.3,92.5,1018.5,321.1,2.1,2.5,316.8,0.00,-1.3,6.1,"23:54:24",1
